{"data":{"norad_id":39419,"epoch":"2026-05-25T05:02:24.909792Z","epoch_age_seconds":67318,"freshness":"FRESH","line1":"1 39419U 13066D   26145.21001053  .00001981  00000+0  12562-3 0  9999","line2":"2 39419  97.4561 135.9614 0013015 108.9433 251.3208 15.09979072682924","mean_motion":15.09979072,"eccentricity":0.0013015,"inclination_deg":97.4561,"raan_deg":135.9614,"arg_perigee_deg":108.9433,"mean_anomaly_deg":251.3208,"bstar":0.00012562,"rev_number":68292,"period_min":95.365560139366,"perigee_km":527.26479769023,"apogee_km":545.26298320807,"semimajor_km":6914.4008904491,"source":"CELESTRAK","updated_at":"2026-05-25T13:38:12.783016Z"}}